(300762) = 2005 GY221 = 2007 VR238

Discovered at Kitt Peak on 2007-11-13 by Spacewatch.

Orbit

Orbit type: Main Belt

Note: WebGL enabled browser required.

epoch2023-02-25.0
epoch JD2460000.5
perihelion date2021-03-11.79073
perihelion JD2459285.29073
argument of perihelion (°)328.29359
ascending node (°)62.86608
inclination (°)9.91950
eccentricity0.1477427
perihelion distance (AU)2.3398761
Tisserand w.r.t. Jupiter3.3
ΔV w.r.t. Earth (km/sec)10.1
semimajor axis (AU)2.7455043
mean anomaly (°)154.95436
mean daily motion (°/day)0.21665600
aphelion distance (AU)3.151
period (years)4.55
P-vector [x]0.84873658
P-vector [y]0.51402886
P-vector [z]0.12417950
Q-vector [x]-0.50610635
Q-vector [y]0.72149803
Q-vector [z]0.47254307
absolute magnitude16.46
phase slope0.15
uncertainty0
referenceMPO 745323
observations used350
oppositions15
arc length (days)9858
first opposition used1996
last opposition used2023
residual rms (arc-secs)0.77
perturbers coarse indicatorM-v
perturbers precise indicator003Ek
first observation date used1996-05-15.0
last observation date used2023-05-12.0
computer nameMPCLINUX
JD of orbit computation2456847.875789
perihelion JD uncertainty (days)8.6044E-05
argument of perihelion uncertainty (°)3.5399E-05
ascending node uncertainty (°)3.0808E-05
inclination uncertainty (°)6.0038E-06
eccentricity uncertainty 5.3268E-08
perihelion distance uncertainty (AU)1.4694E-07
Minimum Orbit Intersection Distances (in AU)
for orbit epoch: 2460000.5, reference: E2023-JC8
Mercury2.00845
Venus1.61696
Earth1.35134
Mars0.88041
Jupiter2.27849
Saturn6.44257
Uranus15.4125
Neptune27.5173

Observations

353 total observations over interval: 1996 05 15.27877 – 2023 05 12.347838
These data are available for download (format description).

Date (UT) J2000 RA J2000 Dec Magn Location Ref
1996 05 15.27877 14 23 13.81 -08 43 33.2   691 – Steward Observatory, Kitt Peak-Spacewatch MPS 286963
1996 05 15.30034 14 23 12.75 -08 43 31.6 21.0 V 691 – Steward Observatory, Kitt Peak-Spacewatch MPS 286963
1996 05 15.32158 14 23 11.63 -08 43 30.0   691 – Steward Observatory, Kitt Peak-Spacewatch MPS 286963
2002 10 11.24117 00 20 17.63 -12 58 41.8 19.5   704 – Lincoln Laboratory ETS, New Mexico MPS 339029
2002 10 11.25689 00 20 16.74 -12 58 40.8 19.5   704 – Lincoln Laboratory ETS, New Mexico MPS 339029
2002 10 11.30438 00 20 14.34 -12 58 40.3 19.9   704 – Lincoln Laboratory ETS, New Mexico MPS 339029
2005 04 07.36410 14 26 15.51 -06 18 40.2 21.0 V 691 – Steward Observatory, Kitt Peak-Spacewatch MPS 212431
2005 04 07.38195 14 26 14.65 -06 18 37.2 20.8 V 691 – Steward Observatory, Kitt Peak-Spacewatch MPS 212431
2005 04 07.39993 14 26 13.83 -06 18 34.3 20.8 V 691 – Steward Observatory, Kitt Peak-Spacewatch MPS 212431
2005 04 15.35431 14 19 49.91 -05 56 25.0 20.8 V 691 – Steward Observatory, Kitt Peak-Spacewatch MPS 212431
2005 04 15.36175 14 19 49.52 -05 56 23.7 20.9 V 691 – Steward Observatory, Kitt Peak-Spacewatch MPS 212431
2005 04 15.36916 14 19 49.15 -05 56 22.8 20.8 V 691 – Steward Observatory, Kitt Peak-Spacewatch MPS 212431
2007 11 05.31748 04 54 06.32 +22 15 23.3 19.4 C 704 – Lincoln Laboratory ETS, New Mexico MPS 288015
2007 11 05.32968 04 54 05.73 +22 15 26.0 21.3 C 704 – Lincoln Laboratory ETS, New Mexico MPS 288015
2007 11 05.35391 04 54 04.80 +22 15 33.0 19.3 C 704 – Lincoln Laboratory ETS, New Mexico MPS 288015
2007 11 05.35728 04 54 04.57 +22 15 32.9 19.9 V 691 – Steward Observatory, Kitt Peak-Spacewatch MPS 229222
2007 11 05.37498 04 54 03.87 +22 15 36.9 19.8 V 691 – Steward Observatory, Kitt Peak-Spacewatch MPS 229222
2007 11 05.37778 04 54 03.81 +22 15 37.4 19.4 V G96 – Mt. Lemmon Survey MPS 229222
2007 11 05.38345 04 54 03.56 +22 15 38.5 19.5 V G96 – Mt. Lemmon Survey MPS 229222
2007 11 05.38774 04 54 03.36 +22 15 39.6 19.9 V 691 – Steward Observatory, Kitt Peak-Spacewatch MPS 229222
2007 11 05.38911 04 54 03.34 +22 15 39.6 19.6 V G96 – Mt. Lemmon Survey MPS 229222
2007 11 05.39468 04 54 03.13 +22 15 41.1 19.6 V G96 – Mt. Lemmon Survey MPS 229222
2007 11 13.31837 04 48 06.93 +22 44 21.5 20.2 V 691 – Steward Observatory, Kitt Peak-Spacewatch MPS 228416
2007 11 13.34952 04 48 05.30 +22 44 28.7 20.9 V 691 – Steward Observatory, Kitt Peak-Spacewatch MPS 228416
2007 11 13.39582 04 48 02.78 +22 44 37.7 20.0 V 691 – Steward Observatory, Kitt Peak-Spacewatch MPS 228416
2007 11 14.32152 04 47 14.79 +22 47 51.6 19.7 V 691 – Steward Observatory, Kitt Peak-Spacewatch MPS 228416
2007 11 14.33917 04 47 13.82 +22 47 55.2 19.6 V 691 – Steward Observatory, Kitt Peak-Spacewatch MPS 228416
2007 11 14.35682 04 47 12.85 +22 47 59.0 19.8 V 691 – Steward Observatory, Kitt Peak-Spacewatch MPS 228416
2007 11 15.32127 04 46 21.40 +22 51 19.0 20.1   704 – Lincoln Laboratory ETS, New Mexico MPS 228416
2007 11 15.33376 04 46 20.71 +22 51 20.9 20.0   704 – Lincoln Laboratory ETS, New Mexico MPS 228416
2007 11 15.34627 04 46 20.01 +22 51 24.2 20.3   704 – Lincoln Laboratory ETS, New Mexico MPS 228416
2007 12 10.25323 04 20 32.69 +24 01 47.5 19.2   704 – Lincoln Laboratory ETS, New Mexico MPS 231365
2007 12 10.26613 04 20 31.88 +24 01 48.9 19.4   704 – Lincoln Laboratory ETS, New Mexico MPS 231365
2007 12 10.29191 04 20 30.18 +24 01 52.3 19.5   704 – Lincoln Laboratory ETS, New Mexico MPS 231365
2007 12 14.19835 04 16 37.98 +24 10 03.9 19.1   704 – Lincoln Laboratory ETS, New Mexico MPS 231365
2007 12 14.21160 04 16 37.10 +24 10 05.4 19.4   704 – Lincoln Laboratory ETS, New Mexico MPS 231365
2007 12 14.22451 04 16 36.45 +24 10 07.5 19.4   704 – Lincoln Laboratory ETS, New Mexico MPS 231365
2007 12 14.23761 04 16 35.66 +24 10 09.4 19.6   704 – Lincoln Laboratory ETS, New Mexico MPS 231365
2007 12 14.25054 04 16 34.89 +24 10 10.8 19.4   704 – Lincoln Laboratory ETS, New Mexico MPS 231365
2007 12 15.38083 04 15 30.52 +24 12 25.1 18.9 V G96 – Mt. Lemmon Survey MPS 286963
2007 12 15.38697 04 15 30.16 +24 12 25.7 19.0 V G96 – Mt. Lemmon Survey MPS 286963
2007 12 15.39969 04 15 29.44 +24 12 27.2 19.0 V G96 – Mt. Lemmon Survey MPS 286963
2007 12 15.40587 04 15 29.08 +24 12 27.9 19.0 V G96 – Mt. Lemmon Survey MPS 286963
2010 06 04.398559 16 06 21.782 -21 57 13.36 20.39 i F51 – Pan-STARRS 1, Haleakala MPS 337405
2010 06 04.409741 16 06 21.134 -21 57 13.26 20.55 i F51 – Pan-STARRS 1, Haleakala MPS 337405
2011 08 31.67065 23 51 53.92 -18 43 56.5 19.8 V E12 – Siding Spring Survey MPS 390611
2011 08 31.68427 23 51 53.24 -18 44 01.0 19.1 V E12 – Siding Spring Survey MPS 390611
2011 08 31.69790 23 51 52.66 -18 44 05.4 19.2 V E12 – Siding Spring Survey MPS 390611
2011 08 31.71156 23 51 51.98 -18 44 09.9 18.9 V E12 – Siding Spring Survey MPS 390611
2011 09 17.48554 23 37 46.235 -20 02 15.22 19.9 i F51 – Pan-STARRS 1, Haleakala MPS 391192
2011 09 17.49761 23 37 45.550 -20 02 17.45 19.8 i F51 – Pan-STARRS 1, Haleakala MPS 391192
2011 09 20.40705 23 35 09.949 -20 10 32.53 19.5 r F51 – Pan-STARRS 1, Haleakala MPS 391192
2011 09 20.41728 23 35 09.375 -20 10 34.03 19.4 r F51 – Pan-STARRS 1, Haleakala MPS 391192
2011 09 20.42984 23 35 08.683 -20 10 35.89 19.5 i F51 – Pan-STARRS 1, Haleakala MPS 391192
2011 09 20.44127 23 35 08.040 -20 10 37.55 19.3 i F51 – Pan-STARRS 1, Haleakala MPS 391192
2011 09 26.57515 23 29 47.94 -20 21 19.4 20.5 V E12 – Siding Spring Survey MPS 398112
2011 09 26.59233 23 29 47.11 -20 21 22.5 19.8 V E12 – Siding Spring Survey MPS 398112
2011 09 26.60943 23 29 46.21 -20 21 21.6 19.5 V E12 – Siding Spring Survey MPS 398112
2011 09 26.62653 23 29 45.49 -20 21 24.4 20.0 V E12 – Siding Spring Survey MPS 398112
2013 01 09.30681 08 57 32.07 +30 48 21.0 20.1 V 703 – Catalina Sky Survey MPS 450840
2013 01 09.31471 08 57 31.68 +30 48 24.0 20.2 V 703 – Catalina Sky Survey MPS 450841
2013 01 09.32274 08 57 31.32 +30 48 27.9 20.0 V 703 – Catalina Sky Survey MPS 450841
2013 01 09.33090 08 57 30.81 +30 48 31.6 20.7 V 703 – Catalina Sky Survey MPS 450841
2013 01 09.34538 08 57 30.09 +30 48 37.6 20.6 V 703 – Catalina Sky Survey MPS 450841
2013 01 09.35238 08 57 29.70 +30 48 39.8 20.0 V 703 – Catalina Sky Survey MPS 450841
2013 01 09.35955 08 57 29.19 +30 48 43.1 20.2 V 703 – Catalina Sky Survey MPS 450841
2013 01 09.36679 08 57 28.83 +30 48 46.8 20.2 V 703 – Catalina Sky Survey MPS 450841
2013 01 10.37135 08 56 37.32 +30 55 46.7 20.4 V G96 – Mt. Lemmon Survey MPS 450841
2013 01 10.38037 08 56 36.88 +30 55 49.8 20.2 V G96 – Mt. Lemmon Survey MPS 450841
2013 01 10.38944 08 56 36.38 +30 55 53.7 20.2 V G96 – Mt. Lemmon Survey MPS 450841
2013 01 10.39849 08 56 35.91 +30 55 57.8 20.3 V G96 – Mt. Lemmon Survey MPS 450841
2013 02 01.43296 08 34 41.581 +32 58 01.60 19.9 r F51 – Pan-STARRS 1, Haleakala MPS 456158
2013 02 01.44502 08 34 40.809 +32 58 04.29 20.0 r F51 – Pan-STARRS 1, Haleakala MPS 456158
2013 02 01.45777 08 34 40.001 +32 58 07.09 19.7 i F51 – Pan-STARRS 1, Haleakala MPS 456158
2013 02 01.47088 08 34 39.169 +32 58 09.83 19.8 i F51 – Pan-STARRS 1, Haleakala MPS 456158
2013 02 06.32602 08 29 49.59 +33 13 34.3 20.4 V 703 – Catalina Sky Survey MPS 456158
2013 02 06.33206 08 29 49.23 +33 13 34.9 20.8 V 703 – Catalina Sky Survey MPS 456158
2013 02 06.33841 08 29 48.87 +33 13 36.8 20.2 V 703 – Catalina Sky Survey MPS 456158
2013 02 06.34443 08 29 48.44 +33 13 37.3 20.6 V 703 – Catalina Sky Survey MPS 456158
2013 02 14.31189 08 22 39.167 +33 28 25.27 20.3 r F51 – Pan-STARRS 1, Haleakala MPS 456158
2013 02 14.32395 08 22 38.553 +33 28 26.22 20.2 r F51 – Pan-STARRS 1, Haleakala MPS 456158
2013 02 14.33706 08 22 37.874 +33 28 26.99 20.8 g F51 – Pan-STARRS 1, Haleakala MPS 456158
2013 02 14.35030 08 22 37.192 +33 28 27.90 20.8 g F51 – Pan-STARRS 1, Haleakala MPS 456158
2014 03 28.38546 14 06 48.97 -03 12 23.8 21.0 V G96 – Mt. Lemmon Survey MPS 508371
2014 03 28.39052 14 06 48.75 -03 12 22.0 21.8 V G96 – Mt. Lemmon Survey MPS 508371
2014 03 28.39562 14 06 48.52 -03 12 20.9 21.2 V G96 – Mt. Lemmon Survey MPS 508371
2014 03 28.40071 14 06 48.31 -03 12 20.0 21.5 V G96 – Mt. Lemmon Survey MPS 508371
